Weather reports worldwide

Advertisment
Coningsby, United Kingdom (3391): temperature & dewpoint: 22.05.2017 19:00:00 - 28.05.2017 19:00:00 (BST)Coningsby, United Kingdom (3391): temperature 5cm: 22.05.2017 19:00:00 - 28.05.2017 19:00:00 (BST)Coningsby, United Kingdom (3391): temperature -20cm & temperature -100cm: 22.05.2017 19:00:00 - 28.05.2017 19:00:00 (BST)Coningsby, United Kingdom (3391): wind speed & gusts: 22.05.2017 19:00:00 - 28.05.2017 19:00:00 (BST)Coningsby, United Kingdom (3391): wind direction: 22.05.2017 19:00:00 - 28.05.2017 19:00:00 (BST)Coningsby, United Kingdom (3391): reduced air pressure: 22.05.2017 19:00:00 - 28.05.2017 19:00:00 (BST)Coningsby, United Kingdom (3391): visibility: 22.05.2017 19:00:00 - 28.05.2017 19:00:00 (BST)Coningsby, United Kingdom (3391): precipitation: 22.05.2017 19:00:00 - 28.05.2017 19:00:00 (BST)
Date & Time tt [°C] td [°C] tt 5cm [°C] tt -20cm [°C] tt -100cm [°C] ff [km/h] ff [kn] fx [km/h] fx [kn] dd ppp [hPa] vv [km] rr [mm]
28.05.2017 19:00:00 21,4 12,0 - - - 5 3 - - ENE 1016,7 10 -
28.05.2017 18:00:00 21,3 11,7 - - - 5 3 - - N 1016,5 10 0,0
28.05.2017 17:00:00 21,0 11,9 - - - 9 5 - - W 1017,1 10 0,0
28.05.2017 16:00:00 20,1 11,9 - - - 11 6 - - WSW 1017,6 10 0,0
28.05.2017 15:00:00 20,2 12,0 - - - 18 10 - - W 1017,9 10 0,0
28.05.2017 14:00:00 20,1 11,5 - - - 15 8 - - W 1017,9 10 0,0
28.05.2017 13:00:00 19,2 12,9 - - - 18 10 - - W 1017,9 10 0,0
28.05.2017 12:00:00 19,1 12,8 - - - 21 11 - - W 1017,9 10 0,0
28.05.2017 11:00:00 18,6 12,7 - - - 24 13 - - W 1017,9 10 0,0
28.05.2017 10:00:00 18,1 12,6 - 15,4 13,5 21 11 - - W 1017,6 10 0,0
28.05.2017 09:00:00 17,6 12,2 - - - 22 12 - - W 1017,2 10 0,0
28.05.2017 08:00:00 16,8 12,6 - - - 24 13 - - WSW 1016,1 10 0,0
28.05.2017 07:00:00 16,3 13,0 - - - 22 12 - - WSW 1016,3 10 0,0
28.05.2017 06:00:00 15,6 12,0 - - - 21 11 - - W 1015,7 10 0,0
28.05.2017 05:00:00 14,8 12,0 - - - 15 8 - - WSW 1015,8 10 0,0
28.05.2017 04:00:00 14,5 11,8 - - - 15 8 - - WSW 1015,3 10 0,0
28.05.2017 03:00:00 13,7 11,8 - - - 13 7 - - WSW 1015,1 10 0,0
28.05.2017 02:00:00 14,4 11,8 - - - 22 12 - - SW 1014,8 10 0,0
28.05.2017 01:00:00 14,5 11,9 - - - 21 11 - - SW 1014,7 10 0,0
28.05.2017 00:00:00 14,8 11,9 - - - 21 11 - - SW 1014,5 10 0,0
27.05.2017 23:00:00 15,4 12,1 - - - 22 12 - - SSW 1013,9 10 0,0
27.05.2017 22:00:00 16,0 12,2 - - - 28 15 - - SSW 1013,6 10 0,0
27.05.2017 21:00:00 17,0 12,4 - - - 26 14 46 25 SW 1013,1 10 0,0
27.05.2017 20:00:00 18,0 13,1 - - - 31 17 54 29 SW 1012,5 10 0,0
27.05.2017 19:00:00 20,2 13,8 - - - 41 22 59 32 SW 1011,7 10 0,0
27.05.2017 18:00:00 20,7 15,1 - - - 35 19 52 28 SSW 1011,1 10 0,0
27.05.2017 17:00:00 19,5 14,7 - - - 28 15 61 33 SSW 1011,4 10 0,0
27.05.2017 16:00:00 21,5 15,6 - - - 46 25 65 35 SW 1010,7 10 0,0
27.05.2017 15:00:00 24,1 16,2 - - - 39 21 57 31 SSW 1009,9 10 0,0
27.05.2017 14:00:00 24,7 17,2 - - - 37 20 52 28 S 1009,7 10 0,0
27.05.2017 13:00:00 25,0 18,1 - - - 28 15 48 26 SE 1010,2 10 0,0
27.05.2017 12:00:00 22,7 16,5 - - - 22 12 - - SE 1010,3 10 0,0
27.05.2017 11:00:00 22,5 17,2 - - - 15 8 - - SSE 1010,6 10 0,0
27.05.2017 10:00:00 23,3 15,9 - 15,4 13,2 15 8 - - SE 1010,7 10 0,0
27.05.2017 09:00:00 22,1 14,8 - - - 16 9 - - SSE 1011,9 10 0,0
27.05.2017 08:00:00 19,1 14,2 - - - 11 6 - - SSE 1012,3 10 0,0
27.05.2017 07:00:00 16,7 13,9 - - - 9 5 - - ESE 1012,6 10 0,0
27.05.2017 06:00:00 14,0 12,4 - - - 9 5 - - E 1012,6 10 0,0
27.05.2017 05:00:00 13,2 12,0 - - - 15 8 - - E 1012,9 8 0,0
27.05.2017 04:00:00 13,3 12,1 - - - 15 8 - - E 1013,2 10 0,0
27.05.2017 03:00:00 13,5 12,3 - - - 13 7 - - E 1014,1 10 0,0
27.05.2017 02:00:00 13,7 12,5 - - - 13 7 - - E 1014,6 8 0,0
27.05.2017 01:00:00 14,0 12,7 - - - 15 8 - - E 1014,9 10 0,0
27.05.2017 00:00:00 14,4 12,7 - - - 15 8 - - ENE 1015,3 10 0,0
26.05.2017 23:00:00 14,3 12,5 - - - 13 7 - - E 1015,8 10 0,0
26.05.2017 22:00:00 15,6 13,2 - - - 15 8 - - E 1016,1 10 0,0
26.05.2017 21:00:00 17,5 14,3 - - - 21 11 - - E 1016,3 10 0,0
26.05.2017 20:00:00 19,3 14,7 - - - 22 12 - - E 1016,6 10 0,0
26.05.2017 19:00:00 21,0 14,9 - - - 24 13 - - E 1016,6 10 0,0
26.05.2017 18:00:00 23,2 16,3 - - - 26 14 - - E 1016,8 10 0,0
26.05.2017 17:00:00 24,3 15,5 - - - 24 13 - - ESE 1017,5 10 0,0
26.05.2017 16:00:00 24,1 16,0 - - - 24 13 - - ESE 1017,9 10 0,0
26.05.2017 15:00:00 24,1 15,3 - - - 21 11 - - SE 1018,4 10 0,0
26.05.2017 14:00:00 23,9 15,2 - - - 24 13 - - SE 1019,0 10 0,0
26.05.2017 13:00:00 23,6 15,7 - - - 26 14 - - ESE 1019,4 10 0,0
26.05.2017 12:00:00 23,5 15,6 - - - 22 12 - - SE 1019,9 10 0,0
26.05.2017 11:00:00 23,2 15,9 - - - 18 10 - - SE 1020,2 10 0,0
26.05.2017 10:00:00 20,5 15,0 20,7 15,2 13,0 15 8 - - ESE 1020,9 10 0,0
26.05.2017 09:00:00 19,0 14,3 - - - 18 10 - - ESE 1021,2 10 0,0
26.05.2017 08:00:00 16,5 13,5 - - - 11 6 - - ESE 1021,6 10 0,0
26.05.2017 07:00:00 14,4 11,6 - - - 11 6 - - E 1021,4 10 0,0
26.05.2017 06:00:00 12,3 10,5 - - - 11 6 - - E 1021,4 10 0,0
26.05.2017 05:00:00 11,4 9,6 - - - 8 4 - - E 1021,6 10 0,0
26.05.2017 04:00:00 12,4 10,2 - - - 8 4 - - E 1021,9 10 0,0
26.05.2017 03:00:00 12,9 10,4 - - - 8 4 - - E 1021,9 10 0,0
26.05.2017 02:00:00 13,5 11,6 - - - 8 4 - - E 1021,9 10 0,0
26.05.2017 01:00:00 14,3 12,7 - - - 5 3 - - E 1022,3 10 0,0
26.05.2017 00:00:00 15,3 13,3 - - - 9 5 - - E 1022,4 10 0,0
25.05.2017 23:00:00 16,7 14,5 - - - 8 4 - - ESE 1022,5 10 0,0
25.05.2017 22:00:00 17,7 14,9 - - - 13 7 - - E 1022,4 10 0,0
25.05.2017 21:00:00 18,8 14,7 - - - 15 8 - - E 1021,9 10 0,0
25.05.2017 20:00:00 20,9 15,6 - - - 16 9 - - E 1021,9 10 0,0
25.05.2017 19:00:00 22,2 15,2 - - - 21 11 - - E 1022,1 10 0,0
25.05.2017 18:00:00 23,6 16,9 - - - 21 11 - - E 1022,3 10 0,0
25.05.2017 17:00:00 24,4 17,5 - - - 18 10 - - ESE 1022,7 10 0,0
25.05.2017 16:00:00 25,0 15,8 - - - 9 5 - - SSE 1022,9 10 0,0
25.05.2017 15:00:00 25,3 16,0 - - - 5 3 - - ESE 1023,2 10 0,0
25.05.2017 14:00:00 25,3 16,6 - - - 5 3 - - ENE 1023,8 10 0,0
25.05.2017 13:00:00 24,0 15,2 - - - 5 3 - - WSW 1024,1 10 0,0
25.05.2017 12:00:00 23,4 15,4 - - - 4 2 - - SSE 1024,5 10 0,0
25.05.2017 11:00:00 21,7 15,6 - - - 5 3 - - SW 1025,0 10 0,0
25.05.2017 10:00:00 21,0 15,7 - 14,7 12,7 4 2 - - E 1025,1 10 0,0
25.05.2017 09:00:00 19,1 16,0 - - - 8 4 - - ESE 1025,1 10 0,0
25.05.2017 08:00:00 17,1 14,5 - - - 5 3 - - NNW 1025,2 10 0,0
25.05.2017 07:00:00 15,4 13,9 - - - 5 3 - - N 1024,9 10 0,0
25.05.2017 06:00:00 13,3 12,2 - - - 4 2 - - E 1024,7 10 0,0
25.05.2017 05:00:00 12,2 11,2 - - - 0 0 - - N 1024,6 10 0,0
25.05.2017 04:00:00 12,9 12,1 - - - 2 1 - - NNE 1024,6 10 0,0
25.05.2017 03:00:00 13,5 12,3 - - - 4 2 - - ENE 1024,8 10 0,0
25.05.2017 02:00:00 13,5 12,5 - - - 2 1 - - E 1025,0 10 0,0
25.05.2017 01:00:00 15,9 13,6 - - - 5 3 - - N 1025,0 10 0,0
25.05.2017 00:00:00 16,0 13,2 - - - 4 2 - - NE 1025,2 10 0,0
24.05.2017 23:00:00 16,0 13,4 - - - 5 3 - - E 1025,3 10 0,0
24.05.2017 22:00:00 17,3 14,3 - - - 9 5 - - ENE 1025,2 10 0,0
24.05.2017 21:00:00 19,1 15,5 - - - 9 5 - - E 1024,9 10 0,0
24.05.2017 20:00:00 22,9 15,2 - - - 8 4 - - N 1024,7 10 0,0
24.05.2017 19:00:00 24,1 13,9 - - - 11 6 - - NW 1024,5 10 0,0
24.05.2017 18:00:00 23,5 13,9 - - - 11 6 - - NNW 1024,5 10 0,0
24.05.2017 17:00:00 24,2 13,8 - - - 13 7 - - N 1024,6 10 0,0
24.05.2017 16:00:00 24,1 15,0 - - - 13 7 - - WNW 1024,8 10 0,0
24.05.2017 15:00:00 23,3 14,1 - - - 11 6 - - NNW 1025,1 10 0,0
24.05.2017 14:00:00 22,5 14,1 - - - 15 8 - - WNW 1025,2 10 0,0
24.05.2017 13:00:00 22,1 14,0 - - - 18 10 - - NW 1025,4 10 0,0
24.05.2017 12:00:00 21,8 14,0 - - - 18 10 - - NW 1025,5 10 0,0
24.05.2017 11:00:00 20,6 13,6 - - - 21 11 - - WNW 1025,4 10 0,0
24.05.2017 10:00:00 19,4 14,0 19,6 14,2 12,5 21 11 - - NW 1025,2 10 0,0
24.05.2017 09:00:00 17,9 13,0 - - - 22 12 - - NW 1025,1 10 0,0
24.05.2017 08:00:00 16,4 12,2 - - - 15 8 - - WNW 1024,7 10 0,0
24.05.2017 07:00:00 13,9 10,7 - - - 8 4 - - WNW 1024,4 10 0,0
24.05.2017 06:00:00 12,4 9,8 - - - 8 4 - - W 1023,9 10 0,0
24.05.2017 05:00:00 13,5 9,9 - - - 9 5 - - WNW 1023,5 10 0,0
24.05.2017 04:00:00 12,8 9,2 - - - 13 7 - - W 1023,3 10 0,0
24.05.2017 03:00:00 12,5 9,0 - - - 9 5 - - W 1023,3 10 0,0
24.05.2017 02:00:00 14,1 9,2 - - - 9 5 - - W 1023,6 10 0,0
24.05.2017 01:00:00 14,9 8,5 - - - 11 6 - - WNW 1023,4 10 0,0
24.05.2017 00:00:00 15,0 8,4 - - - 15 8 - - WNW 1022,9 10 0,0
23.05.2017 23:00:00 16,8 9,0 - - - 15 8 - - NW 1022,9 10 0,0
23.05.2017 22:00:00 18,3 11,2 - - - 13 7 - - NW 1022,5 10 0,0
23.05.2017 21:00:00 19,6 11,0 - - - 11 6 - - WNW 1021,7 10 0,0
23.05.2017 20:00:00 20,9 13,7 - - - 13 7 - - W 1021,0 10 0,0
23.05.2017 19:00:00 22,0 12,1 - - - 18 10 - - W 1020,7 10 0,0
23.05.2017 18:00:00 22,1 12,3 - - - 18 10 - - WSW 1020,4 10 0,0
23.05.2017 17:00:00 20,8 12,0 - - - 18 10 - - WSW 1020,5 10 0,0
23.05.2017 16:00:00 21,3 12,9 - - - 18 10 - - WSW 1020,3 10 0,0
23.05.2017 15:00:00 20,9 12,2 - - - 21 11 - - WSW 1020,3 10 0,0
23.05.2017 14:00:00 20,2 12,2 - - - 18 10 - - W 1020,2 10 0,0
23.05.2017 13:00:00 19,7 12,5 - - - 16 9 - - WSW 1020,1 10 0,0
23.05.2017 12:00:00 19,4 12,6 - - - 15 8 - - W 1020,1 10 0,0
23.05.2017 11:00:00 18,6 10,1 - - - 16 9 - - W 1019,5 10 0,0
23.05.2017 10:00:00 17,0 10,8 - 13,7 12,2 16 9 - - W 1019,1 10 0,0
23.05.2017 09:00:00 16,2 10,2 - - - 18 10 - - W 1018,8 10 0,0
23.05.2017 08:00:00 13,7 10,3 - - - 16 9 - - W 1018,2 10 0,0
23.05.2017 07:00:00 12,2 9,8 - - - 13 7 - - W 1017,5 10 0,0
23.05.2017 06:00:00 10,1 8,7 - - - 11 6 - - WSW 1017,0 10 0,0
23.05.2017 05:00:00 9,9 8,5 - - - 11 6 - - WSW 1016,4 10 0,0
23.05.2017 04:00:00 11,7 8,5 - - - 13 7 - - W 1015,9 10 0,0
23.05.2017 03:00:00 12,6 9,0 - - - 18 10 - - W 1015,2 10 0,0
23.05.2017 02:00:00 13,7 9,9 - - - 16 9 - - W 1014,4 10 0,0
23.05.2017 01:00:00 14,8 11,5 - - - 16 9 - - WNW 1014,2 10 0,0
23.05.2017 00:00:00 14,3 11,2 - - - 13 7 - - W 1013,7 10 0,0
22.05.2017 23:00:00 16,1 11,3 - - - 13 7 - - SSW 1013,0 10 0,0
22.05.2017 22:00:00 17,3 11,9 - - - 11 6 - - SW 1013,0 10 0,0
22.05.2017 21:00:00 18,7 12,6 - - - 11 6 - - SW 1012,7 10 0,0
22.05.2017 20:00:00 19,8 13,5 - - - 9 5 - - SSW 1012,6 10 0,0
22.05.2017 19:00:00 22,3 13,0 - - - 11 6 - - S 1012,7 10 0,0

tt = temperature
td = dewpoint
tt 5cm = temperature 5cm
tt -20cm = temperature -20cm
tt -100cm = temperature -100cm
ff = wind speed
fx = gusts
dd = wind direction
ppp = reduced air pressure
vv = visibility
rr = precipitation

Next stations